Location: Les Salelles
(44.4192°N, 4.1044°E)
Time: 09:24:53
(UTC+00:00)

SL-14 R/B - Pass Details

Date: 20 January 2021
Orbit: 520 x 553 km, 82.4° (Epoch: 28 February)

Event Time Altitude Azimuth Distance (km) Brightness Sun altitude
Rises 16:58:02 0° 179° (S) 2,637 7.1 -4.3°
Reaches altitude 10° 17:00:09 10° 177° (S) 1,757 6.2 -4.6°
Maximum altitude 17:03:58 63° 96° (E) 592 3.3 -5.2°
Drops below altitude 10° 17:07:51 10° 15° (NNE) 1,789 5.6 -5.9°
Sets 17:10:02 0° 12° (NNE) 2,690 6.5 -6.2°
